"Pseudo-MPEC" for P10ODLT

Created 2019 Jun 15 19:08:06 UT using Find_Orb

Click here for an explanation of pseudo-MPECs

 
 Astrometry: 
     P10ODLT  C2019 06 03ie^Astrometry'gvI15wmc(HXDgnc;qA`7V:h#B?A1^YmL0p7EG*F51
     P10ODLT  C2019 06 03.O,gMt[j5,2Pwhj?E39AxwTEIdo;0=yF,+N@;*EWL6Qr#jmUAGUkF51
     P10ODLT  C2019 06 032$`BAredacted;_:BkpqthgUs22E=qYadi)2DtD4@Ds4@e4j6cX#F51
     P10ODLT  C2019 06 03Qj*QFHHZ/3I8EGfCI=GtQg9@1O)j-GAQ+LwSu1=.ZU-[v*_PG`JRF51
     P10ODLT |C2019 06 03(=L9mU)TV%+bQ\oLn24(BAr%#HLcMYkj++7;hkqmP3E3)K[;:c7[807
     P10ODLT |C2019 06 04'/;*XAH_mO`xA!g2r4=,3Pi_e^SNvhV_):=KK0,1bMf)9_Vclick807
     P10ODLT |C2019 06 04EQ`4jKLCTH2d.;X%@u\l+BWGoxQb7os\YJk_vh9yT#aJ[@jV6;xH807
     P10ODLT KC2019 06 04cGFn0]c)scC.!sQ:L+=3USTF/0\%c*B0P6@gSI`pf]YAW0\]oSqK474
     P10ODLT KC2019 06 04,%Kherepi-ORlqcva]dnaJd'.wH?-*W8M(D,S:v:C(`:E]U)!Ij%474
     P10ODLT KC2019 06 04hqg??,'$c^jf`wsUM3x/tmU1^2NkHyYg?nv(R8MrSJE.QY`for`-474
     P10ODLT KC2019 06 05-;r0S^6[O^Z.%SNtO0h]Suax)l1CSQHj;N+7$Cr2HK:vT%Wv0qXb474
     P10ODLT KC2019 06 05TJtxWl)Z]x61)MiLEVNJpKYO(UllM$T[N(3,Opf2nVwQ)A#)w,SG474
     P10ODLT KC2019 06 05Wfw9BC+IG9*OB5q4U]]144;UlDRxQUQn`NSculmJhe:_ov]'1qB@474
     P10ODLT KC2019 06 10cfsa=Mp5Xu,q^[,_,qylKexplanationoB.vSZtw^G9UN/k,(@ly291
     P10ODLT KC2019 06 10YM=e2$\2p.[lpWF*Ot(3uABI*3/2T!f3N)R:-hWPaJGrJQ!x3hsT291
     P10ODLT KC2019 06 101v_D+KR,7?4uq((`c:6$7wBCR@VA91R5JPtu]gnbNvj4_^$dVp;x291

Station data:
(291) LPL/Spacewatch II  (N31.961669 W111.599905)  US/Arizona.  Observers J.
   V. Scotti, R. S. McMillan. 1.8-m f/2.7 reflector + CCD.
(474) Mount John Observatory, Lake Tekapo  (S43.987388 E170.464960)  New
   Zealand.  Observers A. C. Gilmore, P. M. Kilmartin. Measurer P. M.
   Kilmartin. 1.0-m f/7.7 reflector + CCD.
(807) Cerro Tololo Observatory, La Serena  (S30.169136 W70.805900)  Chile.
(F51) Pan-STARRS 1, Haleakala  (N20.707235 W156.255910)  US/Hawaii.
   Observers N. Primak, A. Schultz, S. Watters, J. Thiel, T. Goggia. Measurer
   PS1 Science Consortium. 1.8-m Ritchey-Chrétien + CCD.

Orbital elements:  P10ODLT
   Perihelion 2020 Apr 22.214616 +/- 8.13 TT =  5:09:02 (JD 2458961.714616)
Epoch 2019 Jun 10.0 TT = JDT 2458644.5   Earth MOID: 0.8252   AutoNEOCP
M 287.61335843 +/- 3.3              (J2000 ecliptic)
n   0.22819453 +/- 0.00486          Peri.   47.95029 +/- 1.9
a   2.65215696 +/- 0.0377           Node   286.79911 +/- 0.26
e   0.3217619 +/- 0.00986           Incl.   15.99618 +/- 0.049
P   4.32                   H 17.5   G  0.15   U  9.2  
q 1.79879369 +/- 0.0027    Q 3.50552023 +/- 0.0764
From 16 observations 2019 June 3-10; mean residual 0".38
Residuals in arcseconds: 
190603 F51  .07-  .15-    190604 807  .25+  .19-    190605 474  .02-  .08-    
190603 F51  .31-  .16-    190604 474  .29+  .19-    190610 291  .36-  .74-    
190603 F51  .06+  .07-    190604 474  1.1+  .99+    190610 291  .24+  .36+    
190603 F51  .00   .08+    190604 474  .13+  .56+    190610 291  .15+  .40+    
190603 807  .38-  .05-    190605 474  .27-  .28-    
190604 807  .15-  .03-    190605 474  .54-  .36-    

Ephemerides (geocentric):
Date (UTC) HH   RA              Dec         delta   r     elong  mag " sig PA
---- -- -- --  -------------   -----------  ------ ------ -----  --- ---- ---
2019 06 15 19  13 15 12.898   -28 21 55.36  1.9606 2.6447 122.1 22.1 2.89  75
2019 06 15 20  13 15 13.150   -28 21 34.75  1.9609 2.6446 122.1 22.1 2.92  75
2019 06 15 21  13 15 13.406   -28 21 14.16  1.9612 2.6445 122.1 22.1 2.95  75
2019 06 15 22  13 15 13.664   -28 20 53.58  1.9615 2.6443 122.0 22.1 2.99  75
2019 06 15 23  13 15 13.925   -28 20 33.01  1.9618 2.6442 122.0 22.1 3.02  75
2019 06 16 00  13 15 14.190   -28 20 12.46  1.9620 2.6440 122.0 22.1 3.05  75
2019 06 16 01  13 15 14.457   -28 19 51.92  1.9623 2.6439 121.9 22.1 3.08  75
2019 06 16 02  13 15 14.727   -28 19 31.39  1.9626 2.6438 121.9 22.1 3.11  75
2019 06 16 03  13 15 15.000   -28 19 10.88  1.9629 2.6436 121.8 22.1 3.15  75
2019 06 16 04  13 15 15.277   -28 18 50.39  1.9632 2.6435 121.8 22.1 3.18  75
2019 06 16 05  13 15 15.556   -28 18 29.90  1.9635 2.6433 121.8 22.1 3.21  75
2019 06 16 06  13 15 15.838   -28 18 09.44  1.9637 2.6432 121.7 22.1 3.24  75
2019 06 16 07  13 15 16.123   -28 17 48.98  1.9640 2.6430 121.7 22.1 3.28  75
2019 06 16 08  13 15 16.412   -28 17 28.54  1.9643 2.6429 121.7 22.1 3.31  75
2019 06 16 09  13 15 16.703   -28 17 08.12  1.9646 2.6428 121.6 22.1 3.34  75
2019 06 16 10  13 15 16.997   -28 16 47.70  1.9649 2.6426 121.6 22.1 3.38  76
2019 06 16 11  13 15 17.294   -28 16 27.31  1.9652 2.6425 121.5 22.1 3.41  76
2019 06 16 12  13 15 17.594   -28 16 06.92  1.9655 2.6423 121.5 22.1 3.44  76
2019 06 16 13  13 15 17.897   -28 15 46.55  1.9657 2.6422 121.5 22.1 3.48  76
2019 06 16 14  13 15 18.203   -28 15 26.20  1.9660 2.6420 121.4 22.1 3.51  76
2019 06 16 15  13 15 18.512   -28 15 05.86  1.9663 2.6419 121.4 22.1 3.54  76
2019 06 16 16  13 15 18.824   -28 14 45.53  1.9666 2.6418 121.4 22.1 3.58  76
2019 06 16 17  13 15 19.139   -28 14 25.22  1.9669 2.6416 121.3 22.1 3.61  76
2019 06 16 18  13 15 19.457   -28 14 04.92  1.9672 2.6415 121.3 22.1 3.65  76
2019 06 16 19  13 15 19.778   -28 13 44.64  1.9675 2.6413 121.3 22.1 3.68  76
2019 06 16 20  13 15 20.102   -28 13 24.37  1.9677 2.6412 121.2 22.1 3.72  76
2019 06 16 21  13 15 20.429   -28 13 04.11  1.9680 2.6411 121.2 22.1 3.75  76
2019 06 16 22  13 15 20.759   -28 12 43.87  1.9683 2.6409 121.1 22.1 3.79  76
2019 06 16 23  13 15 21.092   -28 12 23.64  1.9686 2.6408 121.1 22.1 3.82  76
2019 06 17 00  13 15 21.428   -28 12 03.43  1.9689 2.6406 121.1 22.1 3.86  76
2019 06 17 01  13 15 21.767   -28 11 43.23  1.9692 2.6405 121.0 22.1 3.89  76
2019 06 17 02  13 15 22.108   -28 11 23.05  1.9695 2.6403 121.0 22.1 3.93  76
2019 06 17 03  13 15 22.453   -28 11 02.88  1.9698 2.6402 121.0 22.1 3.97  76
2019 06 17 04  13 15 22.801   -28 10 42.72  1.9700 2.6401 120.9 22.1 4.00  76
2019 06 17 05  13 15 23.152   -28 10 22.58  1.9703 2.6399 120.9 22.1 4.04  76
2019 06 17 06  13 15 23.505   -28 10 02.46  1.9706 2.6398 120.8 22.1 4.08  76
2019 06 17 07  13 15 23.862   -28 09 42.35  1.9709 2.6396 120.8 22.1 4.11  76
2019 06 17 08  13 15 24.221   -28 09 22.25  1.9712 2.6395 120.8 22.1 4.15  76
2019 06 17 09  13 15 24.584   -28 09 02.17  1.9715 2.6393 120.7 22.1 4.19  76
2019 06 17 10  13 15 24.949   -28 08 42.10  1.9718 2.6392 120.7 22.1 4.22  76
2019 06 17 11  13 15 25.318   -28 08 22.04  1.9721 2.6391 120.7 22.1 4.26  76
2019 06 17 12  13 15 25.689   -28 08 02.00  1.9724 2.6389 120.6 22.1 4.30  76
2019 06 17 13  13 15 26.063   -28 07 41.98  1.9727 2.6388 120.6 22.1 4.34  76
2019 06 17 14  13 15 26.441   -28 07 21.97  1.9729 2.6386 120.6 22.1 4.37  76
2019 06 17 15  13 15 26.821   -28 07 01.97  1.9732 2.6385 120.5 22.1 4.41  76
2019 06 17 16  13 15 27.204   -28 06 41.99  1.9735 2.6383 120.5 22.1 4.45  76
2019 06 17 17  13 15 27.590   -28 06 22.02  1.9738 2.6382 120.4 22.1 4.49  76
2019 06 17 18  13 15 27.979   -28 06 02.07  1.9741 2.6381 120.4 22.1 4.53  76